Regional Weather Roundup
Issued by NWS Binghamton, NY

Home | Current Version | Previous Version | Text Only | Print | Product List | Glossary On
Versions: 1 2 3 4 5 6 7 8 9 10 11 12 13 14 15 16 17 18 19 20 21 22 23 24 25 26 27 28
000
ASUS41 KBGM 280010
RWRBGM

REGIONAL WEATHER ROUNDUP
NATIONAL WEATHER SERVICE BINGHAMTON NY
700 PM EST MON FEB 27 2017

Note: "fair" indicates few or no clouds below 12,000 feet with no
significant weather and/or obstructions to visibility.

* = Station(s) that does not report precipitation, such as rain,
snow, etc, also no thunder or fog.

NYZ009-015>018-022>025-036-037-044>046-055>057-062-280100
...Central New York...

CITY           SKY/WX    TMP DP  RH WIND       PRES   REMARKS
Binghamton     CLEAR     39  17  41 SW9       30.28R WCI  33
Cortland       CLOUDY    43  27  52 SW6       30.27R
Dansville      CLOUDY    48  22  35 SW5       30.27R
Elmira         CLOUDY    44  21  40 SW7       30.29R
Seneca Falls   PTCLDY    41  30  65 NE5       30.28S
Ithaca         MOCLDY    45  22  40 S9        30.28R
Hamilton       CLOUDY    43  21  42 S3        30.27S
Monticello     CLEAR    N/A N/A N/A SW6       30.34R
Norwich        PTCLDY    43  19  39 S6        30.30R
Oneonta        CLEAR     39  18  41 SW8       30.28R WCI  34
Penn Yan       MOCLDY    45  22  40 SW6       30.26S
Rome           MOCLDY    38  27  64 CALM      30.30R
Sidney         CLEAR     39  18  41 SW7       30.31R WCI  34
Syracuse       MOCLDY    41  28  60 N3        30.28R
$$

PAZ038>040-043-044-047-048-072-280100
...Northeast Pennsylvania...

CITY           SKY/WX    TMP DP  RH WIND       PRES   REMARKS
Hazleton       MOCLDY    41  30  65 S3        30.37S
Scranton       CLOUDY    45  29  53 SW7       30.34S
$$
&&
KEY
WCI = Wind Chill Index
VSB = Visibility
HX  = Heat Index
$$




USA.gov is the U.S. government's official web portal to all federal, state and local government web resources and services.